Content
SEND FEEDBACK

Daily
Averages
Monthly
Summary
Iran

MASHHAD, IRAN


Home > Middle East > Iran
Elevation: 3214 feet     Latitude: 36 16N     Longitude: 059 38E

WEATHER
 
SELECT A DAY
Number of Records: 201,147;   Date Range: 2/9/98 - 9/22/14
 
SHARE

PRINT THIS DATA

[ ← Previous Day ]
WEATHER ALMANAC - MAY 7, 2013
[ Next Day → ]
[ °C ]   °F
Weather ElementAverageHighLow
Temperature70 °F84.2 °F (4:20 pm)53.6 °F (5:00 am)
Dewpoint27.2 °F35.6 °F (7:00 am)19.4 °F (5:20 pm)
Humidity22.3 %47 % (5:00 am)4 % (4:30 pm)
Barometer29.95 in30.01 in (9:55 pm)29.77 in (4:30 pm)
Wind Speed6.4 mph13.8 mph (9:20 am)
Weather ElementAverage
Visibility7.1 mi
Wind DirectionSSE (149.9 °)

Weather ElementTotal
Precipitation---
Cooling Degree Days3.9 (Base 65)
Growing Degree Days18.9 (Base 50)
Averaged from 73 records on May 7, 2013
WEATHER CONDITIONS BREAKOUT
WIND DIRECTION BREAKOUT
WEATHER BY HOUR - MAY 7, 2013
[ °C ]   °F
Local TimeTemperatureDewpointHumidityBarometerVisibilityWind DirectionWind SpeedGust SpeedPrecipitationEventsConditions
12:20 AM62.6 °F30.2 °F30 %29.98 inSSW (210°)4.6 mphClear
12:30 AM62.6 °F30.2 °F30 %29.98 inSSW (210°)4.6 mphClear
1:00 AM60.8 °F30.2 °F31 %29.95 inSW (230°)4.6 mphClear
1:20 AM59.0 °F32.0 °F36 %29.95 inWest (280°)4.6 mphClear
1:30 AM59.0 °F32.0 °F36 %29.95 inWest (280°)4.6 mphClear
2:00 AM59.0 °F30.2 °F34 %29.95 inCalmClear
2:20 AM57.2 °F30.2 °F36 %29.95 inSouth (180°)4.6 mphClear
2:30 AM57.2 °F30.2 °F36 %29.95 inSouth (180°)4.6 mphClear
3:00 AM57.2 °F30.2 °F36 %29.95 inCalmClear
3:20 AM57.2 °F28.4 °F33 %29.95 inEast (100°)4.6 mphClear
3:30 AM57.2 °F28.4 °F33 %29.95 inEast (100°)4.6 mphClear
3:55 AM55.4 °F28.4 °F36 %29.95 inCalmClear
4:30 AM55.0 °F31.0 °F28 %29.81 in9.0 miCalm
4:30 AM55.4 °F32.0 °F41 %29.95 inCalmClear
5:00 AM53.6 °F33.8 °F47 %29.95 inCalmClear
5:20 AM53.6 °F33.8 °F47 %29.95 inWest (280°)4.6 mphClear
5:30 AM53.6 °F33.8 °F47 %29.95 inWest (280°)4.6 mphClear
5:55 AM53.6 °F33.8 °F47 %29.95 inWSW (250°)4.6 mphClear
6:20 AM59.0 °F33.8 °F39 %29.95 inSSW (210°)4.6 mphClear
6:30 AM59.0 °F33.8 °F39 %29.95 inSSW (210°)4.6 mphClear
7:00 AM60.8 °F35.6 °F39 %29.98 inWest (260°)4.6 mphClear
7:20 AM62.6 °F32.0 °F32 %29.98 inWest (270°)4.6 mphClear
7:30 AM62.6 °F32.0 °F32 %29.98 inWest (270°)4.6 mphClear
7:55 AM68.0 °F35.6 °F30 %29.98 inENE (70°)4.6 mphClear
8:20 AM69.8 °F28.4 °F21 %29.98 inNNW (340°)9.2 mphClear
8:30 AM69.8 °F28.4 °F21 %29.98 inNNW (340°)9.2 mphClear
9:00 AM71.6 °F30.2 °F22 %29.98 inNW (320°)11.5 mphClear
9:20 AM71.6 °F28.4 °F20 %29.98 inNW (310°)13.8 mphClear
9:30 AM71.6 °F28.4 °F20 %29.98 inNW (310°)13.8 mphClear
9:55 AM75.2 °F28.4 °F18 %29.98 inNorth (10°)9.2 mphClear
10:20 AM75.2 °F26.6 °F17 %29.98 inNW (310°)6.9 mphClear
10:30 AM75.0 °F27.0 °F9 %29.85 in9.0 miNW (310°)6.7 mphClear
10:30 AM75.2 °F26.6 °F17 %29.98 inNW (310°)6.9 mphClear
11:00 AM77.0 °F28.4 °F17 %29.98 inEast (80°)13.8 mphClear
11:20 AM77.0 °F30.2 °F18 %29.98 inNE (40°)13.8 mphClear
11:30 AM77.0 °F30.2 °F18 %29.98 inNE (40°)13.8 mphClear
12:00 PM78.8 °F30.2 °F17 %29.98 inESE (110°)6.9 mphClear
12:20 PM78.8 °F30.2 °F17 %29.98 inENE (60°)9.2 mphClear
12:30 PM78.8 °F30.2 °F17 %29.98 inENE (60°)9.2 mphClear
1:20 PM80.6 °F28.4 °F15 %29.95 inNE (40°)11.5 mphClear
1:30 PM80.6 °F28.4 °F15 %29.95 inNE (40°)11.5 mphClear
2:00 PM80.6 °F26.6 °F14 %29.95 in6.2 miEast (80°)11.5 mphPartly Cloudy
2:20 PM80.6 °F21.2 °F11 %29.95 in6.2 miENE (70°)6.9 mphPartly Cloudy
2:30 PM80.6 °F21.2 °F11 %29.95 in6.2 miENE (70°)6.9 mphPartly Cloudy
2:55 PM82.4 °F21.2 °F10 %29.92 in6.2 miNNW (330°)4.6 mphPartly Cloudy
3:20 PM82.4 °F26.6 °F13 %29.92 in6.2 miCalmPartly Cloudy
3:30 PM82.4 °F26.6 °F13 %29.92 in6.2 miCalmPartly Cloudy
4:00 PM82.4 °F21.2 °F10 %29.92 in6.2 miNNE (30°)6.9 mphPartly Cloudy
4:20 PM84.2 °F21.2 °F10 %29.92 in6.2 miNorth (10°)9.2 mphPartly Cloudy
4:30 PM84.0 °F22.0 °F4 %29.77 in11.0 miNorth (10°)8.9 mphScattered Clouds
4:30 PM84.2 °F21.2 °F10 %29.92 in6.2 miNorth (10°)9.2 mphPartly Cloudy
5:00 PM84.2 °F21.2 °F10 %29.89 in6.2 miENE (70°)6.9 mphPartly Cloudy
5:20 PM82.4 °F19.4 °F10 %29.92 inNorth (360°)4.6 mphClear
5:30 PM82.4 °F19.4 °F10 %29.92 inNorth (360°)4.6 mphClear
5:55 PM80.6 °F23.0 °F12 %29.92 inNE (40°)9.2 mphClear
6:20 PM80.6 °F21.2 °F11 %29.92 inEast (90°)6.9 mphClear
6:30 PM80.6 °F21.2 °F11 %29.92 inEast (90°)6.9 mphClear
6:55 PM75.2 °F26.6 °F17 %29.92 inNE (50°)13.8 mphClear
7:20 PM73.4 °F26.6 °F18 %29.92 inENE (60°)11.5 mphClear
7:30 PM73.4 °F26.6 °F18 %29.92 inENE (60°)11.5 mphClear
8:00 PM71.6 °F23.0 °F16 %29.95 inEast (80°)6.9 mphClear
8:20 PM69.8 °F21.2 °F16 %29.95 inEast (90°)4.6 mphClear
8:30 PM69.8 °F21.2 °F16 %29.95 inEast (90°)4.6 mphClear
9:00 PM69.8 °F23.0 °F17 %29.98 inSouth (180°)4.6 mphClear
9:20 PM69.8 °F24.8 °F18 %29.98 inSouth (190°)4.6 mphClear
9:30 PM69.8 °F24.8 °F18 %29.98 inSouth (190°)4.6 mphClear
9:55 PM68.0 °F23.0 °F18 %30.01 inSouth (190°)4.6 mphClear
10:20 PM68.0 °F23.0 °F18 %30.01 inSouth (190°)4.6 mphClear
10:30 PM68.0 °F23.0 °F9 %29.86 in9.0 miSouth (190°)4.5 mph
10:30 PM68.0 °F23.0 °F18 %30.01 inSouth (190°)4.6 mphClear
10:55 PM66.2 °F24.8 °F21 %30.01 inSouth (180°)6.9 mphClear
11:20 PM64.4 °F24.8 °F22 %30.01 inSouth (170°)6.9 mphClear
11:30 PM64.4 °F24.8 °F22 %30.01 inSouth (170°)6.9 mphClear
Hourly data recorded from OIMM, located miles away from Mashhad, Iran







STORIES FROM OUR PARTNERS